OAL320 LOWG-LGKR

Flight info

Callsign OAL320
Flight time 1h 25m
Altitude 35000
Route GOLVA DCT PETOV DCT ZAG DCT IRDIV DCT BOSNA DCT RODON DCT LIMJA DCT PITAS
Aircraft A20N/M-SDE2E3FGHIRWXY/LB1

Departure

Time 2026-05-08 14:07
Airport Graz Airport (LOWG)

Arrival

Time 2026-05-08 15:32
Airport Corfu Ioannis Kapodistrias International Airport (LGKR)
Time Latitude Longitude Altitude Speed Heading
2026-05-08 13:47 46.99587 15.44324 1113 ft 0 kts 127°
2026-05-08 13:54 46.99591 15.44317 1104 ft 1 kts 127°
2026-05-08 13:54 46.99596 15.44308 1104 ft 1 kts 127°
2026-05-08 13:55 46.99600 15.44298 1104 ft 1 kts 127°
2026-05-08 13:55 46.99605 15.44289 1108 ft 1 kts 127°
2026-05-08 13:55 46.99614 15.44271 1104 ft 1 kts 127°
2026-05-08 13:56 46.99619 15.44262 1106 ft 1 kts 126°
2026-05-08 13:56 46.99623 15.44253 1108 ft 1 kts 108°
2026-05-08 13:56 46.99625 15.44242 1108 ft 1 kts 76°
2026-05-08 13:56 46.99622 15.44231 1110 ft 1 kts 47°
2026-05-08 13:57 46.99616 15.44224 1107 ft 1 kts
2026-05-08 13:57 46.99613 15.44223 1108 ft 0 kts 353°
2026-05-08 13:58 46.99616 15.44223 1107 ft 2 kts 353°
2026-05-08 13:58 46.99639 15.44217 1109 ft 5 kts 351°
2026-05-08 13:58 46.99685 15.44207 1109 ft 8 kts 351°
2026-05-08 13:58 46.99750 15.44188 1115 ft 11 kts 349°
2026-05-08 13:59 46.99833 15.44166 1115 ft 13 kts 349°
2026-05-08 13:59 46.99930 15.44139 1113 ft 14 kts 348°
2026-05-08 13:59 47.00026 15.44112 1112 ft 15 kts 349°
2026-05-08 13:59 47.00130 15.44084 1119 ft 15 kts 349°
2026-05-08 14:00 47.00234 15.44056 1117 ft 11 kts 349°
2026-05-08 14:00 47.00294 15.44029 1120 ft 10 kts 330°
2026-05-08 14:00 47.00342 15.43946 1118 ft 11 kts 306°
2026-05-08 14:00 47.00381 15.43863 1119 ft 8 kts 302°
2026-05-08 14:01 47.00394 15.43834 1121 ft 2 kts 303°
2026-05-08 14:01 47.00395 15.43831 1121 ft 0 kts 303°
2026-05-08 14:05 47.00395 15.43830 1123 ft 1 kts 303°
2026-05-08 14:05 47.00400 15.43821 1115 ft 2 kts 304°
2026-05-08 14:05 47.00422 15.43775 1118 ft 8 kts 305°
2026-05-08 14:05 47.00432 15.43682 1126 ft 11 kts 259°
2026-05-08 14:06 47.00407 15.43606 1121 ft 8 kts 198°
2026-05-08 14:06 47.00375 15.43612 1117 ft 0 kts 169°
2026-05-08 14:06 47.00367 15.43614 1122 ft 11 kts 169°
2026-05-08 14:06 47.00068 15.43701 1117 ft 81 kts 168°
2026-05-08 14:07 46.99303 15.43908 1105 ft 140 kts 169°
2026-05-08 14:07 46.98246 15.44209 1434 ft 155 kts 168°
2026-05-08 14:07 46.97544 15.44364 1834 ft 154 kts 170°
2026-05-08 14:07 46.96127 15.44656 2739 ft 156 kts 172°
2026-05-08 14:08 46.95033 15.44932 3235 ft 166 kts 166°
2026-05-08 14:08 46.93887 15.45552 3610 ft 187 kts 146°
2026-05-08 14:08 46.92905 15.46969 4025 ft 212 kts 130°
2026-05-08 14:08 46.92255 15.48107 4455 ft 225 kts 130°
2026-05-08 14:09 46.91236 15.49872 5488 ft 230 kts 131°
2026-05-08 14:09 46.90162 15.51712 6494 ft 239 kts 131°
2026-05-08 14:09 46.89079 15.53557 7440 ft 246 kts 131°
2026-05-08 14:09 46.87949 15.55476 8428 ft 252 kts 131°
2026-05-08 14:10 46.86789 15.57442 9411 ft 260 kts 130°
2026-05-08 14:10 46.85590 15.59463 10363 ft 265 kts 134°
2026-05-08 14:10 46.84085 15.60955 11356 ft 263 kts 162°
2026-05-08 14:10 46.82301 15.61628 12230 ft 272 kts 169°
2026-05-08 14:11 46.80378 15.62226 12723 ft 294 kts 170°
2026-05-08 14:11 46.78298 15.62858 13166 ft 317 kts 170°
2026-05-08 14:11 46.76060 15.63555 13544 ft 341 kts 169°
2026-05-08 14:11 46.73694 15.64312 14155 ft 353 kts 169°
2026-05-08 14:12 46.71312 15.65266 14986 ft 358 kts 162°
2026-05-08 14:12 46.69005 15.66722 15783 ft 365 kts 154°
2026-05-08 14:12 46.66773 15.68553 16570 ft 371 kts 152°
2026-05-08 14:12 46.64514 15.70419 17379 ft 375 kts 152°
2026-05-08 14:13 46.62228 15.72295 18182 ft 380 kts 152°
2026-05-08 14:13 46.59909 15.74189 18890 ft 384 kts 153°
2026-05-08 14:13 46.57569 15.76095 19627 ft 387 kts 153°
2026-05-08 14:13 46.55208 15.78016 20327 ft 391 kts 153°
2026-05-08 14:14 46.52824 15.79951 21011 ft 395 kts 153°
2026-05-08 14:14 46.50406 15.81913 21707 ft 399 kts 153°
2026-05-08 14:14 46.47972 15.83885 22376 ft 403 kts 153°
2026-05-08 14:14 46.45508 15.85881 23049 ft 407 kts 153°
2026-05-08 14:15 46.43024 15.87890 23694 ft 411 kts 153°
2026-05-08 14:15 46.40518 15.89916 24268 ft 414 kts 153°
2026-05-08 14:15 46.37997 15.91952 24849 ft 416 kts 153°
2026-05-08 14:15 46.35490 15.93975 25401 ft 419 kts 153°
2026-05-08 14:16 46.32903 15.96059 25958 ft 422 kts 154°
2026-05-08 14:16 46.30363 15.98105 26470 ft 425 kts 154°
2026-05-08 14:16 46.27739 16.00216 26995 ft 428 kts 154°
2026-05-08 14:16 46.25164 16.02287 27482 ft 430 kts 154°
2026-05-08 14:17 46.22539 16.04395 27987 ft 433 kts 155°
2026-05-08 14:17 46.19895 16.06517 28450 ft 436 kts 155°
2026-05-08 14:17 46.17232 16.08651 28906 ft 439 kts 155°
2026-05-08 14:17 46.14554 16.10794 29349 ft 441 kts 155°
2026-05-08 14:18 46.11865 16.12943 29782 ft 444 kts 155°
2026-05-08 14:18 46.09153 16.15108 30200 ft 447 kts 155°
2026-05-08 14:18 46.06426 16.17283 30582 ft 449 kts 155°
2026-05-08 14:18 46.03688 16.19463 30980 ft 451 kts 155°
2026-05-08 14:19 46.00943 16.21648 31401 ft 451 kts 155°
2026-05-08 14:19 45.98198 16.23831 31906 ft 450 kts 155°
2026-05-08 14:19 45.95461 16.26005 32424 ft 448 kts 155°
2026-05-08 14:19 45.92737 16.28165 32922 ft 447 kts 156°
2026-05-08 14:20 45.90021 16.30328 33434 ft 446 kts 154°
2026-05-08 14:20 45.87417 16.32754 33929 ft 447 kts 150°
2026-05-08 14:20 45.84860 16.35279 34339 ft 446 kts 150°
2026-05-08 14:20 45.82304 16.37800 34665 ft 446 kts 150°
2026-05-08 14:21 45.79745 16.40317 34958 ft 447 kts 150°
2026-05-08 14:21 45.74623 16.45339 35046 ft 444 kts 150°
2026-05-08 14:22 45.69523 16.50320 35046 ft 444 kts 150°
2026-05-08 14:22 45.64459 16.55255 35047 ft 443 kts 150°
2026-05-08 14:23 45.59359 16.60214 35043 ft 443 kts 150°
2026-05-08 14:23 45.54261 16.65161 35043 ft 443 kts 150°
2026-05-08 14:24 45.49171 16.70089 35041 ft 442 kts 150°
2026-05-08 14:24 45.44081 16.75006 35030 ft 442 kts 150°
2026-05-08 14:25 45.38992 16.79912 35024 ft 442 kts 150°
2026-05-08 14:25 45.33902 16.84808 35019 ft 442 kts 150°
2026-05-08 14:26 45.28806 16.89698 35026 ft 442 kts 150°
2026-05-08 14:26 45.23703 16.94585 35027 ft 443 kts 150°
2026-05-08 14:27 45.18587 16.99474 35026 ft 444 kts 150°
2026-05-08 14:27 45.13460 17.04363 35024 ft 444 kts 150°
2026-05-08 14:28 45.08331 17.09244 35031 ft 445 kts 150°
2026-05-08 14:28 45.03191 17.14123 35029 ft 445 kts 150°
2026-05-08 14:29 44.98044 17.18998 35033 ft 445 kts 150°
2026-05-08 14:29 44.92903 17.23856 35035 ft 445 kts 150°
2026-05-08 14:30 44.87760 17.28705 35032 ft 444 kts 150°
2026-05-08 14:30 44.82622 17.33540 35033 ft 444 kts 150°
2026-05-08 14:31 44.77489 17.38360 35031 ft 443 kts 150°
2026-05-08 14:31 44.72361 17.43164 35030 ft 443 kts 150°
2026-05-08 14:32 44.64708 17.50314 35023 ft 442 kts 150°
2026-05-08 14:32 44.59588 17.55085 35022 ft 442 kts 150°
2026-05-08 14:33 44.54468 17.59846 35018 ft 442 kts 150°
2026-05-08 14:33 44.49347 17.64598 35015 ft 441 kts 150°
2026-05-08 14:34 44.44229 17.69337 35013 ft 441 kts 150°
2026-05-08 14:34 44.39089 17.74027 35020 ft 440 kts 153°
2026-05-08 14:35 44.33589 17.77681 35017 ft 436 kts 163°
2026-05-08 14:35 44.27847 17.80420 35022 ft 437 kts 164°
2026-05-08 14:36 44.22096 17.83180 35029 ft 437 kts 164°
2026-05-08 14:36 44.16348 17.85946 35035 ft 437 kts 164°
2026-05-08 14:37 44.10592 17.88711 35044 ft 438 kts 164°
2026-05-08 14:37 44.04840 17.91466 35019 ft 436 kts 164°
2026-05-08 14:38 43.99118 17.94202 35018 ft 435 kts 164°
2026-05-08 14:38 43.93385 17.96935 35023 ft 436 kts 164°
2026-05-08 14:39 43.87652 17.99664 35015 ft 436 kts 164°
2026-05-08 14:39 43.81899 18.02397 35027 ft 436 kts 164°
2026-05-08 14:40 43.76156 18.05120 35016 ft 435 kts 164°
2026-05-08 14:40 43.70462 18.07814 34997 ft 435 kts 163°
2026-05-08 14:41 43.64730 18.10521 35019 ft 436 kts 163°
2026-05-08 14:41 43.58959 18.13239 35013 ft 438 kts 163°
2026-05-08 14:42 43.53183 18.15956 35010 ft 438 kts 163°
2026-05-08 14:42 43.47411 18.18664 35008 ft 438 kts 163°
2026-05-08 14:43 43.41645 18.21366 35007 ft 437 kts 163°
2026-05-08 14:43 43.35887 18.24058 35001 ft 437 kts 163°
2026-05-08 14:44 43.30133 18.26742 34997 ft 437 kts 163°
2026-05-08 14:44 43.24379 18.29422 35003 ft 437 kts 163°
2026-05-08 14:45 43.18620 18.32098 35000 ft 437 kts 163°
2026-05-08 14:45 43.12863 18.34768 35000 ft 437 kts 163°
2026-05-08 14:46 43.07097 18.37437 35003 ft 437 kts 163°
2026-05-08 14:46 43.01328 18.40100 35004 ft 438 kts 163°
2026-05-08 14:47 42.95549 18.42764 34999 ft 438 kts 163°
2026-05-08 14:47 42.89795 18.45411 35002 ft 439 kts 163°
2026-05-08 14:48 42.84003 18.48071 35003 ft 439 kts 163°
2026-05-08 14:48 42.78204 18.50728 35005 ft 440 kts 163°
2026-05-08 14:49 42.72395 18.53384 35006 ft 440 kts 163°
2026-05-08 14:49 42.66581 18.56038 35004 ft 441 kts 163°
2026-05-08 14:50 42.60761 18.58689 34990 ft 441 kts 163°
2026-05-08 14:50 42.54932 18.61339 34986 ft 442 kts 163°
2026-05-08 14:51 42.49101 18.63985 34985 ft 442 kts 163°
2026-05-08 14:51 42.43260 18.66629 34981 ft 443 kts 163°
2026-05-08 14:52 42.34489 18.70591 34988 ft 444 kts 163°
2026-05-08 14:53 42.28621 18.73236 34984 ft 445 kts 163°
2026-05-08 14:53 42.22739 18.75881 34980 ft 446 kts 163°
2026-05-08 14:54 42.16852 18.78524 34980 ft 447 kts 163°
2026-05-08 14:54 42.11950 18.80720 34973 ft 447 kts 163°
2026-05-08 14:55 42.06037 18.83364 34971 ft 448 kts 163°
2026-05-08 14:55 42.00117 18.86007 34977 ft 449 kts 163°
2026-05-08 14:56 41.94183 18.88650 34975 ft 449 kts 163°
2026-05-08 14:56 41.88243 18.91291 34982 ft 450 kts 163°
2026-05-08 14:57 41.82300 18.93928 34983 ft 450 kts 163°
2026-05-08 14:57 41.76354 18.96561 34990 ft 450 kts 163°
2026-05-08 14:58 41.70401 18.99192 34988 ft 450 kts 163°
2026-05-08 14:58 41.64490 19.01800 34971 ft 447 kts 163°
2026-05-08 14:59 41.58581 19.04401 34973 ft 447 kts 163°
2026-05-08 14:59 41.49754 19.08280 34972 ft 447 kts 163°
2026-05-08 15:00 41.43846 19.10897 34975 ft 448 kts 162°
2026-05-08 15:00 41.37980 19.13784 34983 ft 450 kts 161°
2026-05-08 15:01 41.32108 19.16699 34983 ft 451 kts 162°
2026-05-08 15:01 41.26218 19.19581 34985 ft 451 kts 162°
2026-05-08 15:02 41.20327 19.22447 34984 ft 451 kts 162°
2026-05-08 15:02 41.14435 19.25308 34894 ft 448 kts 162°
2026-05-08 15:03 41.11501 19.26731 34494 ft 446 kts 162°
2026-05-08 15:03 41.08592 19.28139 33922 ft 444 kts 161°
2026-05-08 15:03 41.05693 19.29542 33098 ft 445 kts 161°
2026-05-08 15:03 41.02776 19.30953 32137 ft 449 kts 161°
2026-05-08 15:04 40.99826 19.32378 31183 ft 453 kts 161°
2026-05-08 15:04 40.96897 19.33791 30270 ft 456 kts 161°
2026-05-08 15:04 40.93915 19.35231 29444 ft 455 kts 162°
2026-05-08 15:04 40.90961 19.36654 28801 ft 449 kts 162°
2026-05-08 15:05 40.88041 19.38060 28123 ft 445 kts 162°
2026-05-08 15:05 40.85150 19.39451 27438 ft 441 kts 162°
2026-05-08 15:05 40.82280 19.40830 26784 ft 437 kts 162°
2026-05-08 15:05 40.79429 19.42198 26134 ft 433 kts 162°
2026-05-08 15:06 40.76609 19.43551 25489 ft 430 kts 162°
2026-05-08 15:06 40.73802 19.44895 24850 ft 427 kts 162°
2026-05-08 15:06 40.71027 19.46224 24250 ft 424 kts 162°
2026-05-08 15:06 40.68265 19.47544 23651 ft 421 kts 163°
2026-05-08 15:07 40.65522 19.48855 22988 ft 417 kts 163°
2026-05-08 15:07 40.62810 19.50150 22362 ft 412 kts 163°
2026-05-08 15:07 40.60130 19.51430 21748 ft 408 kts 163°
2026-05-08 15:07 40.57474 19.52696 21123 ft 404 kts 163°
2026-05-08 15:08 40.54849 19.53946 20530 ft 399 kts 163°
2026-05-08 15:08 40.53123 19.54766 20133 ft 397 kts 163°
2026-05-08 15:08 40.49668 19.56407 19431 ft 392 kts 163°
2026-05-08 15:08 40.47115 19.57619 18932 ft 388 kts 164°
2026-05-08 15:09 40.44591 19.58814 18516 ft 386 kts 164°
2026-05-08 15:09 40.42071 19.60005 18091 ft 383 kts 164°
2026-05-08 15:09 40.39605 19.61173 17595 ft 380 kts 164°
2026-05-08 15:09 40.37098 19.62360 17106 ft 376 kts 164°
2026-05-08 15:10 40.34680 19.63502 16649 ft 373 kts 164°
2026-05-08 15:10 40.32250 19.64649 16177 ft 370 kts 165°
2026-05-08 15:10 40.29836 19.65786 15694 ft 367 kts 165°
2026-05-08 15:10 40.27437 19.66916 15168 ft 365 kts 165°
2026-05-08 15:11 40.25064 19.68034 14681 ft 360 kts 165°
2026-05-08 15:11 40.22723 19.69137 14235 ft 357 kts 165°
2026-05-08 15:11 40.20395 19.70231 13780 ft 355 kts 165°
2026-05-08 15:11 40.18079 19.71320 13339 ft 351 kts 165°
2026-05-08 15:12 40.15794 19.72391 12800 ft 347 kts 165°
2026-05-08 15:12 40.13544 19.73446 12472 ft 343 kts 165°
2026-05-08 15:12 40.11285 19.74503 12223 ft 345 kts 165°
2026-05-08 15:12 40.09027 19.75560 11986 ft 344 kts 165°
2026-05-08 15:13 40.06778 19.76615 11720 ft 341 kts 165°
2026-05-08 15:13 40.04559 19.77654 11468 ft 338 kts 165°
2026-05-08 15:13 40.02338 19.78692 11222 ft 340 kts 165°
2026-05-08 15:13 40.00113 19.79732 10983 ft 339 kts 165°
2026-05-08 15:14 39.99364 19.80082 10894 ft 338 kts 165°
2026-05-08 15:14 39.97222 19.81083 10688 ft 335 kts 165°
2026-05-08 15:14 39.95019 19.82110 10454 ft 337 kts 165°
2026-05-08 15:14 39.92834 19.83055 10338 ft 323 kts 173°
2026-05-08 15:15 39.90684 19.83096 10219 ft 299 kts 196°
2026-05-08 15:15 39.88847 19.82084 10107 ft 278 kts 218°
2026-05-08 15:15 39.87513 19.80380 9963 ft 265 kts 233°
2026-05-08 15:15 39.86390 19.78496 9648 ft 263 kts 233°
2026-05-08 15:16 39.85265 19.76614 9277 ft 264 kts 233°
2026-05-08 15:16 39.84137 19.74740 8901 ft 262 kts 233°
2026-05-08 15:16 39.83016 19.72883 8447 ft 261 kts 233°
2026-05-08 15:16 39.81894 19.71030 8010 ft 260 kts 232°
2026-05-08 15:17 39.80778 19.69188 7596 ft 259 kts 232°
2026-05-08 15:17 39.79678 19.67377 7192 ft 258 kts 232°
2026-05-08 15:17 39.78565 19.65546 6798 ft 257 kts 232°
2026-05-08 15:17 39.77545 19.63679 6629 ft 254 kts 237°
2026-05-08 15:18 39.76572 19.61722 6514 ft 258 kts 237°
2026-05-08 15:18 39.75600 19.59784 6396 ft 254 kts 237°
2026-05-08 15:18 39.74633 19.57857 6267 ft 255 kts 237°
2026-05-08 15:18 39.73664 19.55930 6139 ft 255 kts 237°
2026-05-08 15:19 39.72564 19.54137 6003 ft 254 kts 221°
2026-05-08 15:19 39.71004 19.53081 5886 ft 257 kts 197°
2026-05-08 15:19 39.69218 19.52742 5764 ft 259 kts 190°
2026-05-08 15:19 39.67429 19.52462 5639 ft 258 kts 190°
2026-05-08 15:20 39.65645 19.52175 5511 ft 259 kts 189°
2026-05-08 15:20 39.63851 19.51881 5381 ft 260 kts 190°
2026-05-08 15:20 39.62059 19.51586 5260 ft 258 kts 190°
2026-05-08 15:20 39.60285 19.51313 5136 ft 257 kts 185°
2026-05-08 15:21 39.58513 19.51721 5012 ft 266 kts 159°
2026-05-08 15:21 39.57035 19.53184 4890 ft 274 kts 132°
2026-05-08 15:21 39.56218 19.55415 4777 ft 279 kts 104°
2026-05-08 15:21 39.56225 19.57940 4636 ft 284 kts 82°
2026-05-08 15:22 39.57006 19.60299 4515 ft 289 kts 54°
2026-05-08 15:22 39.58386 19.62197 4395 ft 290 kts 42°
2026-05-08 15:22 39.59908 19.63900 4266 ft 287 kts 41°
2026-05-08 15:22 39.61400 19.65589 4155 ft 282 kts 43°
2026-05-08 15:23 39.62811 19.67288 4067 ft 271 kts 45°
2026-05-08 15:23 39.64113 19.68937 3969 ft 260 kts 46°
2026-05-08 15:23 39.65365 19.70571 3869 ft 250 kts 47°
2026-05-08 15:23 39.66558 19.72147 3784 ft 240 kts 47°
2026-05-08 15:24 39.67701 19.73666 3687 ft 232 kts 48°
2026-05-08 15:24 39.68810 19.75145 3552 ft 226 kts 48°
2026-05-08 15:24 39.69895 19.76587 3408 ft 223 kts 48°
2026-05-08 15:24 39.70999 19.78065 3311 ft 230 kts 47°
2026-05-08 15:25 39.72102 19.79531 3192 ft 221 kts 48°
2026-05-08 15:25 39.73155 19.80921 3378 ft 220 kts 49°
2026-05-08 15:25 39.74259 19.82404 3742 ft 234 kts 48°
2026-05-08 15:25 39.75418 19.83943 3412 ft 241 kts 48°
2026-05-08 15:26 39.76587 19.85488 3203 ft 235 kts 48°
2026-05-08 15:26 39.77691 19.86945 3195 ft 216 kts 50°
2026-05-08 15:26 39.78374 19.88510 3222 ft 198 kts 87°
2026-05-08 15:26 39.78233 19.90211 3216 ft 184 kts 126°
2026-05-08 15:27 39.77426 19.91264 3199 ft 148 kts 162°
2026-05-08 15:27 39.76533 19.91491 3202 ft 119 kts 182°
2026-05-08 15:27 39.75718 19.91554 3197 ft 120 kts 179°
2026-05-08 15:27 39.74865 19.91636 3049 ft 125 kts 184°
2026-05-08 15:28 39.73990 19.91565 2837 ft 126 kts 186°
2026-05-08 15:28 39.73137 19.91484 2634 ft 121 kts 185°
2026-05-08 15:28 39.72308 19.91412 2419 ft 116 kts 184°
2026-05-08 15:28 39.71486 19.91344 2228 ft 121 kts 184°
2026-05-08 15:29 39.70653 19.91268 2032 ft 119 kts 185°
2026-05-08 15:29 39.69845 19.91037 1854 ft 121 kts 191°
2026-05-08 15:29 39.69018 19.90771 1665 ft 121 kts 191°
2026-05-08 15:29 39.68229 19.90520 1471 ft 117 kts 192°
2026-05-08 15:30 39.67420 19.90260 1286 ft 118 kts 192°
2026-05-08 15:30 39.66662 19.90063 1124 ft 107 kts 186°
2026-05-08 15:30 39.65947 19.89976 940 ft 104 kts 181°
2026-05-08 15:30 39.65191 19.89974 806 ft 112 kts 179°
2026-05-08 15:31 39.64410 19.90056 713 ft 113 kts 171°
2026-05-08 15:31 39.63647 19.90259 562 ft 113 kts 169°
2026-05-08 15:31 39.62880 19.90482 400 ft 112 kts 168°
2026-05-08 15:31 39.62121 19.90704 307 ft 112 kts 169°
2026-05-08 15:32 39.61349 19.90909 144 ft 115 kts 168°
2026-05-08 15:32 39.60575 19.91107 21 ft 108 kts 168°
2026-05-08 15:32 39.60019 19.91258 21 ft 53 kts 168°
2026-05-08 15:32 39.59804 19.91315 22 ft 25 kts 168°
2026-05-08 15:33 39.59625 19.91361 20 ft 27 kts 169°
2026-05-08 15:33 39.59439 19.91409 17 ft 28 kts 169°
2026-05-08 15:33 39.59259 19.91454 17 ft 18 kts 168°
2026-05-08 15:33 39.59188 19.91451 17 ft 10 kts 192°
2026-05-08 15:34 39.59176 19.91485 17 ft 3 kts 25°
2026-05-08 15:34 39.59209 19.91473 17 ft 8 kts 339°
2026-05-08 15:34 39.59309 19.91443 17 ft 21 kts 349°
2026-05-08 15:34 39.59474 19.91400 17 ft 27 kts 348°
2026-05-08 15:35 39.59669 19.91348 21 ft 30 kts 348°
2026-05-08 15:35 39.59884 19.91294 22 ft 33 kts 348°
2026-05-08 15:35 39.60119 19.91234 21 ft 32 kts 348°
2026-05-08 15:35 39.60325 19.91181 20 ft 25 kts 348°
2026-05-08 15:36 39.60449 19.91148 19 ft 15 kts 350°
2026-05-08 15:36 39.60521 19.91156 18 ft 15 kts 22°
2026-05-08 15:36 39.60593 19.91215 19 ft 10 kts 59°
2026-05-08 15:36 39.60584 19.91316 18 ft 8 kts 87°
2026-05-08 15:37 39.60591 19.91372 18 ft 4 kts 79°
2026-05-08 15:37 39.60594 19.91389 18 ft 0 kts 80°